EN

Hourly Weather Bolshie Filipkovichi

Today, 27 October, Tuesday

Time Temperature Precipitation Wind Pressure Humidity
00:00 +7°C° 0 mm 5 mps 750 mmHg 81%
01:00 +7°C° 0 mm 5 mps 750 mmHg 81%
02:00 +7°C° 0 mm 5 mps 750 mmHg 81%
03:00 +6°C° 0 mm 5 mps 750 mmHg 82%
04:00 +6°C° 0 mm 5 mps 750 mmHg 84%
05:00 +6°C° 0 mm 4 mps 750 mmHg 85%
06:00 +6°C° 0 mm 4 mps 750 mmHg 85%
07:00 +6°C° 0 mm 4 mps 750 mmHg 84%
08:00 +6°C° 0 mm 4 mps 750 mmHg 84%
09:00 +7°C° 0 mm 4 mps 750 mmHg 80%
10:00 +10°C° 0 mm 4 mps 750 mmHg 76%
11:00 +11°C° 0 mm 4 mps 750 mmHg 71%
12:00 +10°C° 0 mm 5 mps 750 mmHg 70%
13:00 +12°C° 0 mm 5 mps 750 mmHg 69%
14:00 +13°C° 0 mm 5 mps 750 mmHg 68%
15:00 +12°C° 0 mm 4 mps 750 mmHg 73%
16:00 +11°C° 0 mm 4 mps 750 mmHg 77%
17:00 +10°C° 0 mm 3 mps 750 mmHg 82%
18:00 +9°C° 0 mm 3 mps 750 mmHg 83%
19:00 +9°C° 0 mm 3 mps 750 mmHg 84%
20:00 +9°C° 0 mm 3 mps 750 mmHg 85%
21:00 +9°C° 0 mm 3 mps 750 mmHg 86%
22:00 +8°C° 0 mm 3 mps 750 mmHg 87%
23:00 +8°C° 0 mm 3 mps 750 mmHg 88%

Tomorrow, 28 October, Wednesday

Time Temperature Precipitation Wind Pressure Humidity
00:00 +8°C° 0 mm 3 mps 750 mmHg 89%
01:00 +8°C° 0 mm 3 mps 751 mmHg 90%
02:00 +8°C° 0 mm 3 mps 751 mmHg 91%
03:00 +7°C° 0 mm 3 mps 750 mmHg 92%
04:00 +7°C° 0 mm 3 mps 750 mmHg 92%
05:00 +7°C° 0 mm 3 mps 750 mmHg 93%
06:00 +8°C° 0 mm 3 mps 750 mmHg 92%
07:00 +8°C° 0 mm 3 mps 751 mmHg 91%
08:00 +8°C° 0 mm 3 mps 751 mmHg 90%
09:00 +9°C° 0 mm 3 mps 751 mmHg 86%
10:00 +11°C° 0 mm 3 mps 751 mmHg 83%
11:00 +12°C° 0 mm 3 mps 751 mmHg 79%
12:00 +13°C° 0 mm 3 mps 751 mmHg 77%
13:00 +14°C° 0 mm 3 mps 750 mmHg 75%
14:00 +14°C° 0 mm 3 mps 750 mmHg 73%
15:00 +13°C° 0 mm 3 mps 750 mmHg 78%
16:00 +12°C° 0 mm 3 mps 750 mmHg 83%
17:00 +11°C° 0 mm 3 mps 750 mmHg 88%
18:00 +10°C° 0 mm 3 mps 750 mmHg 87%
19:00 +10°C° 0 mm 3 mps 751 mmHg 86%
20:00 +9°C° 0 mm 3 mps 751 mmHg 85%
21:00 +9°C° 0 mm 3 mps 751 mmHg 84%
22:00 +9°C° 0 mm 3 mps 751 mmHg 83%
23:00 +8°C° 0 mm 3 mps 751 mmHg 82%

Day after tomorrow, 29 October, Thursday

Time Temperature Precipitation Wind Pressure Humidity
00:00 +8°C° 0 mm 3 mps 751 mmHg 83%
01:00 +8°C° 0 mm 2 mps 751 mmHg 84%
02:00 +7°C° 0 mm 2 mps 750 mmHg 84%
03:00 +7°C° 0 mm 2 mps 750 mmHg 85%
04:00 +7°C° 0 mm 2 mps 750 mmHg 86%
05:00 +7°C° 0 mm 2 mps 750 mmHg 87%
06:00 +7°C° 0 mm 2 mps 750 mmHg 87%
07:00 +7°C° 0 mm 2 mps 750 mmHg 87%
08:00 +7°C° 0 mm 2 mps 750 mmHg 87%
09:00 +8°C° 0 mm 2 mps 750 mmHg 82%
10:00 +9°C° 0 mm 3 mps 750 mmHg 78%
11:00 +11°C° 0 mm 3 mps 750 mmHg 73%
12:00 +11°C° 0 mm 3 mps 749 mmHg 71%
13:00 +13°C° 0 mm 2 mps 749 mmHg 70%
14:00 +13°C° 0 mm 2 mps 749 mmHg 68%
15:00 +12°C° 0 mm 2 mps 749 mmHg 73%
16:00 +10°C° 0 mm 2 mps 748 mmHg 78%
17:00 +9°C° 0 mm 2 mps 748 mmHg 83%
18:00 +9°C° 0 mm 2 mps 748 mmHg 84%
19:00 +9°C° 0 mm 2 mps 748 mmHg 85%
20:00 +9°C° 0 mm 2 mps 748 mmHg 85%
21:00 +9°C° 0 mm 2 mps 748 mmHg 86%
22:00 +9°C° 0 mm 2 mps 748 mmHg 86%
23:00 +9°C° 0 mm 2 mps 748 mmHg 86%

30 October, Friday

Time Temperature Precipitation Wind Pressure Humidity
00:00 +10°C° 0 mm 1 mps 748 mmHg 86%
01:00 +10°C° 0 mm 1 mps 748 mmHg 86%
02:00 +10°C° 0 mm 1 mps 748 mmHg 86%
03:00 +10°C° 0 mm 1 mps 748 mmHg 88%
04:00 +10°C° 0 mm 1 mps 748 mmHg 89%
05:00 +10°C° 0 mm 1 mps 748 mmHg 90%
06:00 +10°C° 0 mm 1 mps 748 mmHg 91%
07:00 +10°C° 0 mm 1 mps 748 mmHg 91%
08:00 +10°C° 0 mm 1 mps 748 mmHg 92%
09:00 +9°C° 0 mm 2 mps 748 mmHg 87%
10:00 +10°C° 0 mm 2 mps 748 mmHg 82%
11:00 +12°C° 0 mm 2 mps 749 mmHg 78%
12:00 +12°C° 0 mm 2 mps 749 mmHg 76%
13:00 +12°C° 0 mm 3 mps 749 mmHg 74%
14:00 +12°C° 0 mm 3 mps 749 mmHg 72%
15:00 +11°C° 0.1 mm 3 mps 749 mmHg 77%
16:00 +10°C° 0.1 mm 2 mps 749 mmHg 81%
17:00 +10°C° 0.1 mm 2 mps 749 mmHg 85%
18:00 +10°C° 0.4 mm 2 mps 749 mmHg 87%
19:00 +9°C° 0.4 mm 3 mps 750 mmHg 89%
20:00 +9°C° 0.4 mm 3 mps 750 mmHg 91%
21:00 +9°C° 0.3 mm 3 mps 750 mmHg 91%
22:00 +9°C° 0.3 mm 3 mps 750 mmHg 90%
23:00 +9°C° 0.3 mm 3 mps 750 mmHg 90%

31 October, Saturday

Time Temperature Precipitation Wind Pressure Humidity
00:00 +8°C° 0.1 mm 3 mps 751 mmHg 89%
01:00 +8°C° 0.1 mm 3 mps 751 mmHg 89%
02:00 +8°C° 0.1 mm 3 mps 751 mmHg 88%
03:00 +8°C° 0 mm 3 mps 751 mmHg 89%
04:00 +7°C° 0 mm 3 mps 751 mmHg 89%
05:00 +7°C° 0 mm 3 mps 751 mmHg 89%
06:00 +7°C° 0 mm 3 mps 752 mmHg 89%
07:00 +7°C° 0 mm 3 mps 752 mmHg 89%
08:00 +7°C° 0 mm 3 mps 752 mmHg 89%
09:00 +7°C° 0 mm 3 mps 752 mmHg 88%
10:00 +8°C° 0 mm 3 mps 753 mmHg 86%
11:00 +9°C° 0 mm 3 mps 753 mmHg 85%
12:00 +9°C° 0 mm 3 mps 753 mmHg 85%
13:00 +9°C° 0 mm 3 mps 753 mmHg 86%
14:00 +9°C° 0 mm 3 mps 753 mmHg 86%
15:00 +9°C° 0 mm 3 mps 754 mmHg 88%
16:00 +9°C° 0 mm 3 mps 754 mmHg 90%
17:00 +8°C° 0 mm 3 mps 754 mmHg 92%
18:00 +8°C° 0 mm 3 mps 754 mmHg 92%
19:00 +8°C° 0 mm 3 mps 755 mmHg 92%
20:00 +8°C° 0 mm 2 mps 755 mmHg 92%
21:00 +7°C° 0 mm 2 mps 755 mmHg 92%
22:00 +7°C° 0 mm 2 mps 755 mmHg 93%
23:00 +5°C° 0 mm 3 mps 756 mmHg 93%

1 November, Sunday

Time Temperature Precipitation Wind Pressure Humidity
00:00 +5°C° 0 mm 3 mps 756 mmHg 92%
01:00 +5°C° 0 mm 3 mps 756 mmHg 92%
02:00 +5°C° 0 mm 3 mps 756 mmHg 91%
03:00 +7°C° 0 mm 3 mps 756 mmHg 90%
04:00 +7°C° 0 mm 3 mps 756 mmHg 88%
05:00 +7°C° 0 mm 3 mps 756 mmHg 87%
06:00 +6°C° 0 mm 4 mps 757 mmHg 88%
07:00 +6°C° 0 mm 4 mps 757 mmHg 89%
08:00 +5°C° 0 mm 4 mps 757 mmHg 90%
09:00 +6°C° 0 mm 4 mps 757 mmHg 88%
10:00 +6°C° 0 mm 4 mps 757 mmHg 86%
11:00 +6°C° 0 mm 4 mps 757 mmHg 84%
12:00 +6°C° 0 mm 5 mps 757 mmHg 84%
13:00 +6°C° 0 mm 5 mps 757 mmHg 84%
14:00 +6°C° 0 mm 5 mps 757 mmHg 85%
15:00 +6°C° 0 mm 5 mps 757 mmHg 85%
16:00 +6°C° 0 mm 5 mps 757 mmHg 86%
17:00 +6°C° 0 mm 5 mps 757 mmHg 86%
18:00 +6°C° 0 mm 5 mps 757 mmHg 86%
19:00 +6°C° 0 mm 5 mps 757 mmHg 86%
20:00 +6°C° 0 mm 4 mps 757 mmHg 86%
21:00 +6°C° 0 mm 4 mps 757 mmHg 86%
22:00 +6°C° 0 mm 4 mps 757 mmHg 86%
23:00 +6°C° 0 mm 4 mps 757 mmHg 86%
Show more